User: anonymous   Login
Location: Unspecified
(0.0000°N, 0.0000°E)
Time: 00:02:14
(UTC+00:00)
Language:

LANDSAT 8 - Orbit

View from above orbital plane
View from above orbital plane
View from above satellite
View from above satellite

Ground track
Ground track

The orbit data is extracted from the following two-line orbital elements,

1 39084U 13008A   16270.74219028  .00000080  00000-0  27828-4 0  9994
2 39084  98.2151 339.1160 0001281  93.9072 266.2273 14.57113310192698
Epoch (UTC): 26 September 2016 17:48:45
Eccentricity: 0.0001281
inclination: 98.2151°
perigee height: 701 km
apogee height: 703 km
right ascension of ascending node: 339.1160°
argument of perigee: 93.9072°
revolutions per day: 14.57113310
mean anomaly at epoch: 266.2273°
orbit number at epoch: 19269

The dashed part of the orbit path shows where the satellite is in the earth's shadow,  

DLR